Tracking 31013 objects as of 11-Jul-2025
HD Live streaming from Space Station
objects crossing your sky now

SL-6 R/B(2)

Track SL-6 R/B(2) now!


NORAD ID: 20333
Int'l Code: 1989-091D
Perigee: 6,266.4 km
Apogee: 33,477.9 km
Inclination: 69.5 °
Period: 705.2 minutes
Semi major axis: 26243 km
RCS: 6.5159 m2 (large)
Launch date: November 23, 1989
Source: Commonwealth of Independent States (former USSR) (CIS)
Launch site: PLESETSK MISSILE AND SPACE COMPLEX (PKMTR)

Note: This is a ROCKET BODY
Your satellite tracking list
Your tracking list is empty




NASA's NSSDC Master Catalog

Two Line Element Set (TLE):
1 20333U 89091D   25191.39964385 -.00000487  00000-0  00000-0 0  9993
2 20333  69.4923 150.4589 5184514  57.3106  59.2017  2.04210930238736
Source of the keplerian elements: AFSPC